Simultaneous Nadir Overpasses (SNOs) Predictions

Prediction of SNOs between AQUA and NOAA-19 Satellite Orbit:

Table of predicted SNOs for the next 14.0 days since TLE Epoch: 11/16/2024
Index Date (AQUA) Time (AQUA) Lat,Lon (AQUA) SZA (AQUA ) Date (NOAA-19) Time (NOAA-19) Lat,Lon (NOAA-19) SZA (NOAA-19 ) Distance(km) Time Diff (sec)
1 11/16/2024 05:38:01 -75.58, -83.50 85.59 11/16/2024 05:37:07 -75.60, -83.56 85.58 2.52 54
2 11/16/2024 06:27:23 75.66, 83.94 94.49 11/16/2024 06:28:08 75.66, 83.88 94.50 1.59 45
3 11/18/2024 08:36:38 -75.61,-128.18 85.06 11/18/2024 08:35:42 -75.60,-128.18 85.08 1.68 56
4 11/18/2024 09:26:00 75.69, 39.24 95.03 11/18/2024 09:26:43 75.67, 39.30 95.01 3.19 43
5 11/20/2024 11:35:13 -75.60,-172.76 84.58 11/20/2024 11:34:17 -75.58,-172.83 84.61 3.18 56
6 11/20/2024 12:24:35 75.69, -5.35 95.51 11/20/2024 12:25:18 75.66, -5.32 95.49 3.26 43
7 11/22/2024 14:33:47 -75.61, 142.62 84.12 11/22/2024 14:32:51 -75.60, 142.64 84.13 1.45 56
8 11/22/2024 15:23:08 75.65, -49.82 95.93 11/22/2024 15:23:52 75.68, -49.84 95.97 3.78 44
9 11/24/2024 17:32:19 -75.58, 98.11 83.72 11/24/2024 17:31:25 -75.60, 98.07 83.70 2.71 54
10 11/24/2024 18:21:41 75.67, -94.49 96.38 11/24/2024 18:22:26 75.69, -94.40 96.41 3.34 45
11 11/26/2024 20:30:51 -75.62, 53.42 83.28 11/26/2024 20:29:59 -75.60, 53.47 83.30 2.47 52
12 11/26/2024 21:20:12 75.66,-139.05 96.77 11/26/2024 21:21:00 75.69,-139.00 96.80 3.11 48
13 11/28/2024 23:29:21 -75.62, 8.83 82.91 11/28/2024 23:28:33 -75.59, 8.83 82.95 4.07 48



Historial Predications of SNOs between AQUA and NOAA-19
